User: anonymous   Login
Location: Palmerston North
(40.3500°S, 175.6170°E)
Time: 15:25:58
(UTC+13:00)
Language:

CZ-2D R/B - Orbit

View from above orbital plane
View from above orbital plane
View from above satellite
View from above satellite

Ground track
Ground track

The orbit data is extracted from the following two-line orbital elements,

1 28738U 05024B   19289.11352351  .00000174  00000-0  13849-4 0  9990
2 28738  97.4064 314.5253 0010795 317.0713  42.9674 15.11884158784358
Epoch (UTC): 16 October 2019 02:43:28
Eccentricity: 0.0010795
inclination: 97.4064°
perigee height: 523 km
apogee height: 538 km
right ascension of ascending node: 314.5253°
argument of perigee: 317.0713°
revolutions per day: 15.11884158
mean anomaly at epoch: 42.9674°
orbit number at epoch: 78435

The dashed part of the orbit path shows where the satellite is in the earth's shadow,  

DLR